User: anonymous   Login
Location: Niedergestelen
(46.3129°N, 7.7822°E)
Time: 12:32:39
(UTC+00:00)
Language:

SL-23 DEB - Orbit

View from above orbital plane
View from above orbital plane
View from above satellite
View from above satellite

Ground track
Ground track

The orbit data is extracted from the following two-line orbital elements,

1 37756U 11037B   21061.52520001  .00000311  00000-0  90960-4 0  9998
2 37756  51.4456  55.1990 1902916 203.3700 146.8101 11.26794068395740
Epoch (UTC): 02 March 2021 12:36:17
Eccentricity: 0.1902916
inclination: 51.4456°
perigee height: 427 km
apogee height: 3625 km
right ascension of ascending node: 55.1990°
argument of perigee: 203.3700°
revolutions per day: 11.26794068
mean anomaly at epoch: 146.8101°
orbit number at epoch: 39574

The dashed part of the orbit path shows where the satellite is in the earth's shadow,  

DLR